Home   Weather   Taiyuan   Past weeks
Flag for China

Past Weather in Taiyuan, Shanxi, China — Yesterday and Last 2 Weeks

Now
73 °F

Clear.


Feels Like: 75 °F
Forecast: 85 / 64 °F
Wind: 3 mph from Southeast

Location: Taiyuan Airport

Current Time: May 23, 2019 at 11:04:20 pm

Latest Report: May 23, 2019 at 10:30 pm


Visibility: 10 mi

Pressure: 29.80 "Hg (27.20 "Hg at 790m altitude)

Humidity: 20%

Dew Point: 30 °F

Location of TaiyuanLocation

Past Weather in Taiyuan — Graph

°F

Taiyuan Temperature Yesterday

Maximum temperature yesterday: 91 °F (at 2:30 pm)
Minimum temperature yesterday: 48 °F (at 5:00 am)
Average temperature yesterday: 72 °F

High & Low Weather Summary for the Past Weeks

 TemperatureHumidityPressure
High95 °F (May 23, 1:30 pm)93% (May 9, 3:00 am)30.15 "Hg (May 9, 3:00 am)
Low37 °F (May 13, 3:30 am)6% (May 23, 1:00 pm)29.62 "Hg (May 17, 6:00 pm)
Average67 °F34%29.87 "Hg
* Reported May 8 9:00 pm — May 23 9:00 pm, Taiyuan. Weather by CustomWeather, © 2019

Note: Actual official high and low records may vary slightly from our data, if they occured in-between our weather recording intervals... More about our weather records

Advertising

Taiyuan Weather History for the Previous 24 Hours

Scroll right to see more
 ConditionsComfort  
Time TempWeatherWind HumidityBarometerVisibility
9:00 pm
Thu, May 23
79 °FClear.3 mph15%29.77 "Hg10 mi
8:30 pm82 °FClear.3 mph12%29.77 "Hg10 mi
8:00 pm86 °FPassing clouds.6 mph11%29.74 "HgN/A
7:30 pm88 °FPassing clouds.6 mph10%29.74 "HgN/A
7:00 pm88 °FPassing clouds.6 mph9%29.74 "HgN/A
6:30 pm90 °FPassing clouds.8 mph8%29.71 "HgN/A
6:00 pm91 °FPassing clouds.3 mph9%29.71 "HgN/A
5:30 pm91 °FPassing clouds.3 mph8%29.71 "HgN/A
5:00 pm93 °FPassing clouds.6 mph8%29.74 "HgN/A
4:30 pm93 °FPassing clouds.6 mph8%29.74 "HgN/A
4:00 pm95 °FSunny.1 mph8%29.74 "Hg10 mi
3:30 pm93 °FPassing clouds.6 mph7%29.74 "HgN/A
3:00 pm93 °FPassing clouds.3 mph8%29.74 "HgN/A
2:30 pm93 °FPassing clouds.8 mph7%29.77 "HgN/A
1:30 pm95 °FSunny.3 mph7%29.80 "Hg10 mi
1:00 pm93 °FSunny.3 mph6%29.80 "Hg10 mi
12:30 pm91 °FSunny.1 mph8%29.83 "Hg10 mi
12:00 pm90 °FPassing clouds.3 mph10%29.86 "HgN/A
11:30 am86 °FPassing clouds.3 mph11%29.86 "HgN/A
11:00 am84 °FSunny.3 mph12%29.86 "Hg10 mi
10:30 am82 °FPassing clouds.3 mph14%29.89 "HgN/A
10:00 am81 °FSunny.3 mph15%29.89 "Hg10 mi
9:30 am79 °FSunny.1 mph15%29.89 "Hg10 mi
9:00 am77 °FSunny.1 mph15%29.92 "Hg10 mi
8:30 am73 °FSunny.1 mph19%29.92 "Hg10 mi
8:00 am73 °FSunny.No wind19%29.92 "Hg10 mi
7:30 am68 °FSunny.1 mph30%29.89 "Hg10 mi
7:00 am63 °FSunny.1 mph34%29.89 "Hg10 mi
6:30 am59 °FSunny.3 mph42%29.89 "Hg10 mi
6:00 am50 °FSunny.1 mph62%29.89 "Hg10 mi
5:30 am52 °FSunny.1 mph50%29.89 "Hg10 mi
5:00 am52 °FClear.1 mph50%29.86 "Hg10 mi
4:30 am55 °FClear.1 mph38%29.86 "Hg10 mi
4:00 am59 °FClear.1 mph31%29.86 "Hg10 mi
3:30 am57 °FClear.3 mph36%29.86 "Hg10 mi
3:00 am57 °FClear.1 mph36%29.86 "Hg10 mi
2:30 am57 °FClear.3 mph36%29.86 "Hg10 mi
2:00 am57 °FClear.3 mph39%29.86 "Hg10 mi
1:30 am59 °FClear.1 mph34%29.83 "Hg10 mi
1:00 am61 °FPassing clouds.3 mph31%29.83 "HgN/A
12:30 am61 °FClear.1 mph34%29.83 "Hg10 mi
12:00 am64 °FClear.3 mph30%29.83 "Hg10 mi
11:30 pm
Wed, May 22
64 °FClear.3 mph30%29.83 "Hg10 mi
11:00 pm66 °FPassing clouds.3 mph26%29.80 "HgN/A
Weather by CustomWeather, © 2019

See weather overview